AirNav   Air Wisconsin Up To $57,000 Bonus
 
 698 users online  

KTNT Dade-Collier Training and Transition Airport
Miami, Florida, USA

GOING TO MIAMI?


FAA INFORMATION EFFECTIVE 22 APRIL 2021

Location

FAA Identifier: TNT
Lat/Long: 25-51-42.5000N 080-53-49.2000W
25-51.708333N 080-53.820000W
25.8618056,-80.8970000
(estimated)
Elevation: 12.7 ft. / 3.9 m (surveyed)
Variation: 05W (2005)
From city: 36 miles W of MIAMI, FL
Time zone: UTC -4 (UTC -5 during Standard Time)
Zip code: 34141

Airport Operations

Airport use: Open to the public, ARPT CLSD TO PUBLIC EXCP BY ARRANGEMENT WITH MIAMI-DADE AVIATION DEPT MIAMI 305-869-1660.
Control tower: no
ARTCC: MIAMI CENTER
FSS: MIAMI FLIGHT SERVICE STATION
NOTAMs facility: MIA (NOTAM-D service available)
Attendance: 0830-1730
Wind indicator: lighted
Segmented circle: yes
Beacon: white-green (lighted land airport)
Operates sunset to sunrise.
Landing fee: yes

Airport Communications

CTAF/UNICOM: 123.0
WX AWOS-3: 119.075 ((239) 695-9198)
MIAMI APPROACH: 128.6
MIAMI DEPARTURE: 128.6
  • APCH/DEP SVC PRVDD BY MIAMI ATCT ON FREQS 128.6/306.975

Nearby radio navigation aids

VOR radial/distance  VOR name  Freq  Var
DHPr281/29.8DOLPHIN VORTAC113.9004W

Airport Services

Airframe service: NONE
Powerplant service: NONE
Bottled oxygen: NONE
Bulk oxygen: NONE

Runway Information

Runway 9/27

Dimensions: 10499 x 150 ft. / 3200 x 46 m
Surface: asphalt/porous friction courses, in good condition
Weight bearing capacity: 
PCN 65 /F/A/X/T
Single wheel: 130.0
Double wheel: 200.0
Double tandem: 400.0
Dual double tandem: 800.0
Runway edge lights: high intensity
RUNWAY 9  RUNWAY 27
Latitude: 25-51.708232N25-51.707022N
Longitude: 080-54.777252W080-52.861753W
Elevation: 12.6 ft.12.4 ft.
Traffic pattern: leftright
Runway heading: 095 magnetic, 090 true275 magnetic, 270 true
Markings: precision, in fair conditionprecision, in fair condition
Touchdown point: yes, no lightsyes, no lights
Instrument approach: ILS
Obstructions: none26 ft. trees, 1075 ft. from runway, 290 ft. right of centerline, 34:1 slope to clear

Airport Ownership and Management from official FAA records

Ownership: Publicly-owned
Owner: MIAMI-DADE COUNTY
MIAMI-DADE AVIATION DEPARTMENT, P.O. BOX 025504
MIAMI, FL 33102-5504
Phone (305) 876-0464
Manager: ROOPNARINE NANDAN
14201 NORTHWEST LEJEUNE ROAD
OPA-LOCKA, FL 33054
Phone (305) 869-1662
AIRPORT PHYSICAL ADDRESS: 54757 EAST TAMIAMI TRAIL, OCHOPPI, FL 34141 239-695-3300, FAX: 305-876-0565

Airport Operational Statistics

Aircraft operations: avg 40/day *
100% transient general aviation
* for 12-month period ending 10 October 2018

Additional Remarks

A100 ACR TRNG OPNS ONLY.
THREE 8IN WELLS FLUSH MTD BTN RWY AND TWY.
FEE FOR USE FOR ACFT OVER 12500 LBS.
MAEW IN BUFFER ISLAND BTN RY 09/27 & TWY.
WILDLIFE OCCASIONALLY ON & INVOF ARPT.
BE ALERT TO LOW FLYING NATIONAL PARK SVC ACFT ALL QUADRANTS.
NO NGT TIME OPNS EXC WITH PRIOR PMSN FM MIAMI-DADE AVN DEPT 305-869-1660.
FOR CD IF UNA TO CTC ON FSS FREQ, CTC MIAMI APCH AT 305-869-5432.

Instrument Procedures

NOTE: All procedures below are presented as PDF files. If you need a reader for these files, you should download the free Adobe Reader.

NOT FOR NAVIGATION. Please procure official charts for flight.
FAA instrument procedures published for use from 22 April 2021 at 0901Z to 20 May 2021 at 0900z.

 
IAPs - Instrument Approach Procedures
RNAV (GPS) RWY 09   download (257KB)

Other nearby airports with instrument procedures:

KTMB - Miami Executive Airport (28 nm SE)
X51 - Miami Homestead General Aviation Airport (29 nm SE)
KMIA - Miami International Airport (33 nm E)
KOPF - Miami-Opa Locka Executive Airport (34 nm E)
KHST - Homestead Air Reserve Base (36 nm SE)
 
Loc | Ops | Rwys | IFR | FBO | Links
Com | Nav | Svcs | Stats | Notes


 
Area around KTNT (Dade-Collier Training and Transition Airport)
 
Road maps at: MapQuest Bing Google
 
Aerial photo
WARNING: Photo may not be current or correct
Aerial photo of KTNT (Dade-Collier Training and Transition Airport)
Do you have a better or more recent aerial photo of Dade-Collier Training and Transition Airport that you would like to share? If so, please send us your photo.

 
Sectional chart

 
Airport distance calculator
Flying to Dade-Collier Training and Transition Airport? Find the distance to fly.

From to KTNT

Sunrise and sunset
Times for 14-May-2021
 Local
(UTC-4)
 Zulu
(UTC)
Morning civil twilight06:1410:14
Sunrise06:3910:39
Sunset20:0100:01
Evening civil twilight20:2600:26

Current date and time
Zulu (UTC)  14-May-2021 05:05:53
Local (UTC-4)  14-May-2021 01:05:53
 
METAR
KTMB 
28nm SE 
140453Z AUTO 36005KT 10SM CLR 24/23 A3004 RMK AO2 SLP173 T02440228 403560228
KMIA 
32nm E 
140453Z 34004KT 10SM FEW023 SCT080 BKN140 OVC180 26/22 A3005 RMK AO2 SLP175 T02560222 403440239 $
KOPF 
33nm E 
140453Z AUTO 34008KT 10SM CLR 25/22 A3006 RMK AO2 SLP178 T02500217 403390233
KHWO 
37nm E 
140453Z 33005KT 10SM FEW021 24/22 A3007 RMK AO2 SLP181 T02390217 403280211 $
KHST 
37nm SE 
140456Z AUTO 32006KT 10SM SCT019 24/22 A3003 RMK AO2 SLP172 T02380224 403300224
KFLL 
42nm E 
140453Z 33004KT 10SM SCT021 BKN027 24/23 A3004 RMK AO2 SLP173 T02440233 403170233
KMKY 
43nm W 
140456Z AUTO 05005KT 10SM FEW120 23/21 A3007 RMK AO2 SLP182 T02330211 TSNO $
KFXE 
43nm NE 
140453Z AUTO 33004KT 10SM FEW055 24/23 A3005 RMK AO2 SLP177 T02440228 403110228 TSNO
KIMM 
44nm NW 
140455Z AUTO 02007KT 10SM FEW017 SCT022 BKN110 23/20 A3007 RMK AO2 PWINO
KPMP 
48nm NE 
140453Z AUTO 34006KT 10SM SCT024 25/22 A3005 RMK AO2 SLP176 T02500217 402940233
TAF
KTMB 
28nm SE 
140300Z 1403/1424 VRB03KT P6SM FEW025 BKN250 FM141300 35005KT P6SM FEW020 SCT120 FM141800 02010KT P6SM VCTS SCT035CB BKN050
KMIA 
32nm E 
140300Z 1403/1506 VRB03KT P6SM FEW025 BKN250 FM141300 35005KT P6SM FEW020 SCT120 FM141800 02011KT P6SM VCTS SCT035CB BKN050 FM150000 04010KT P6SM VCSH FEW020 SCT060 BKN120
KOPF 
33nm E 
140300Z 1403/1424 VRB03KT P6SM FEW025 BKN250 FM141300 35005KT P6SM FEW020 SCT120 FM141800 02010KT P6SM VCTS SCT035CB BKN050
NOTAMs
Click for the latest NOTAMs
NOTAMs are issued by the DoD/FAA and will open in a separate window not controlled by AirNav.

 

 
 

Would you like to see your business listed on this page?

 If your business provides an interesting product or service to pilots, flight crews, aircraft, or users of the Dade-Collier Training and Transition Airport, you should consider listing it here.  To start the listing process, click on the button below
 
Add a business
 

Other Pages about Dade-Collier Training and Transition Airport

Update a link
 
Copyright © AirNav, LLC. All rights reserved. Privacy Policy  Contact